• In Kazakhstan
  • List of Countries
  • For 7 days
  • Water Temperature
  • Satellite Maps
  • Weather Map
  • News
  • Weather Widgets
  • user-avatar
    Login

    Hourly Weather Yulara

    Today, 20 April, Saturday

    Time Temperature Precipitation Wind Pressure Humidity
    00:00 +24°C° 0 mm 2 mps 718 mmHg 20%
    01:00 +24°C° 0 mm 3 mps 717 mmHg 22%
    02:00 +22°C° 0 mm 3 mps 717 mmHg 23%
    03:00 +22°C° 0 mm 3 mps 717 mmHg 25%
    04:00 +22°C° 0 mm 3 mps 717 mmHg 26%
    05:00 +22°C° 0 mm 3 mps 717 mmHg 28%
    06:00 +21°C° 0 mm 4 mps 717 mmHg 29%
    07:00 +23°C° 0 mm 4 mps 718 mmHg 28%
    08:00 +26°C° 0 mm 4 mps 718 mmHg 27%
    09:00 +28°C° 0 mm 4 mps 719 mmHg 26%
    10:00 +29°C° 0 mm 4 mps 719 mmHg 24%
    11:00 +32°C° 0 mm 4 mps 719 mmHg 22%
    12:00 +33°C° 0 mm 5 mps 719 mmHg 20%
    13:00 +34°C° 0 mm 4 mps 718 mmHg 19%
    14:00 +34°C° 0 mm 4 mps 717 mmHg 18%
    15:00 +34°C° 0 mm 4 mps 717 mmHg 17%
    16:00 +33°C° 0 mm 3 mps 717 mmHg 19%
    17:00 +31°C° 0 mm 2 mps 717 mmHg 20%
    18:00 +29°C° 0 mm 1 mps 717 mmHg 22%
    19:00 +29°C° 0 mm 2 mps 717 mmHg 23%
    20:00 +28°C° 0 mm 2 mps 718 mmHg 23%
    21:00 +28°C° 0 mm 3 mps 718 mmHg 24%
    22:00 +25°C° 0 mm 5 mps 718 mmHg 39%
    23:00 +21°C° 0 mm 8 mps 718 mmHg 54%

    Tomorrow, 21 April, Sunday

    Time Temperature Precipitation Wind Pressure Humidity
    00:00 +16°C° 0 mm 10 mps 718 mmHg 69%
    01:00 +16°C° 0 mm 10 mps 718 mmHg 68%
    02:00 +14°C° 0 mm 10 mps 719 mmHg 68%
    03:00 +15°C° 0 mm 9 mps 719 mmHg 67%
    04:00 +13°C° 0 mm 9 mps 719 mmHg 66%
    05:00 +13°C° 0 mm 9 mps 719 mmHg 64%
    06:00 +13°C° 0 mm 8 mps 720 mmHg 63%
    07:00 +13°C° 0 mm 8 mps 720 mmHg 58%
    08:00 +15°C° 0 mm 8 mps 721 mmHg 54%
    09:00 +16°C° 0 mm 8 mps 722 mmHg 49%
    10:00 +18°C° 0 mm 8 mps 721 mmHg 44%
    11:00 +21°C° 0 mm 8 mps 721 mmHg 39%
    12:00 +23°C° 0 mm 7 mps 721 mmHg 34%
    13:00 +24°C° 0 mm 7 mps 721 mmHg 32%
    14:00 +26°C° 0 mm 7 mps 720 mmHg 29%
    15:00 +26°C° 0 mm 6 mps 720 mmHg 27%
    16:00 +24°C° 0 mm 6 mps 720 mmHg 28%
    17:00 +23°C° 0 mm 6 mps 720 mmHg 28%
    18:00 +22°C° 0 mm 6 mps 720 mmHg 29%
    19:00 +21°C° 0 mm 6 mps 721 mmHg 30%
    20:00 +20°C° 0 mm 7 mps 721 mmHg 31%
    21:00 +18°C° 0 mm 8 mps 722 mmHg 32%
    22:00 +17°C° 0 mm 8 mps 722 mmHg 34%
    23:00 +16°C° 0 mm 8 mps 722 mmHg 36%

    Day after tomorrow, 22 April, Monday

    Time Temperature Precipitation Wind Pressure Humidity
    00:00 +16°C° 0 mm 8 mps 722 mmHg 38%
    01:00 +15°C° 0 mm 7 mps 722 mmHg 39%
    02:00 +14°C° 0 mm 7 mps 722 mmHg 41%
    03:00 +14°C° 0 mm 7 mps 721 mmHg 42%
    04:00 +12°C° 0 mm 7 mps 722 mmHg 47%
    05:00 +12°C° 0 mm 7 mps 722 mmHg 52%
    06:00 +11°C° 0 mm 7 mps 722 mmHg 57%
    07:00 +12°C° 0 mm 7 mps 722 mmHg 54%
    08:00 +13°C° 0 mm 8 mps 723 mmHg 51%
    09:00 +15°C° 0 mm 8 mps 723 mmHg 49%
    10:00 +18°C° 0 mm 7 mps 723 mmHg 42%
    11:00 +21°C° 0 mm 7 mps 723 mmHg 36%
    12:00 +23°C° 0 mm 6 mps 722 mmHg 30%
    13:00 +24°C° 0 mm 6 mps 722 mmHg 28%
    14:00 +26°C° 0 mm 5 mps 721 mmHg 25%
    15:00 +27°C° 0 mm 5 mps 721 mmHg 23%
    16:00 +25°C° 0 mm 5 mps 721 mmHg 23%
    17:00 +23°C° 0 mm 5 mps 721 mmHg 24%
    18:00 +22°C° 0 mm 5 mps 721 mmHg 25%
    19:00 +21°C° 0 mm 5 mps 722 mmHg 27%
    20:00 +20°C° 0 mm 5 mps 722 mmHg 30%
    21:00 +17°C° 0 mm 6 mps 723 mmHg 32%
    22:00 +16°C° 0 mm 6 mps 723 mmHg 35%
    23:00 +16°C° 0 mm 6 mps 723 mmHg 37%

    23 April, Tuesday

    Time Temperature Precipitation Wind Pressure Humidity
    00:00 +15°C° 0 mm 5 mps 723 mmHg 40%
    01:00 +14°C° 0 mm 5 mps 722 mmHg 42%
    02:00 +13°C° 0 mm 5 mps 722 mmHg 45%
    03:00 +13°C° 0 mm 5 mps 722 mmHg 47%
    04:00 +12°C° 0 mm 5 mps 722 mmHg 48%
    05:00 +12°C° 0 mm 5 mps 722 mmHg 49%
    06:00 +10°C° 0 mm 5 mps 722 mmHg 50%
    07:00 +13°C° 0 mm 5 mps 723 mmHg 44%
    08:00 +15°C° 0 mm 6 mps 723 mmHg 39%
    09:00 +17°C° 0 mm 6 mps 724 mmHg 33%
    10:00 +20°C° 0 mm 6 mps 724 mmHg 29%
    11:00 +22°C° 0 mm 5 mps 723 mmHg 25%
    12:00 +25°C° 0 mm 5 mps 723 mmHg 21%
    13:00 +26°C° 0 mm 5 mps 722 mmHg 19%
    14:00 +27°C° 0 mm 5 mps 722 mmHg 17%
    15:00 +28°C° 0 mm 5 mps 721 mmHg 16%
    16:00 +26°C° 0 mm 4 mps 721 mmHg 18%
    17:00 +25°C° 0 mm 4 mps 721 mmHg 20%
    18:00 +23°C° 0 mm 4 mps 721 mmHg 22%
    19:00 +22°C° 0 mm 4 mps 722 mmHg 25%
    20:00 +21°C° 0 mm 4 mps 722 mmHg 27%
    21:00 +20°C° 0 mm 5 mps 723 mmHg 30%
    22:00 +19°C° 0 mm 5 mps 723 mmHg 33%
    23:00 +17°C° 0 mm 5 mps 723 mmHg 35%

    24 April, Wednesday

    Time Temperature Precipitation Wind Pressure Humidity
    00:00 +17°C° 0 mm 5 mps 722 mmHg 38%
    01:00 +16°C° 0 mm 5 mps 722 mmHg 41%
    02:00 +16°C° 0 mm 5 mps 722 mmHg 43%
    03:00 +15°C° 0 mm 5 mps 722 mmHg 46%
    04:00 +15°C° 0 mm 5 mps 722 mmHg 49%
    05:00 +15°C° 0 mm 5 mps 722 mmHg 52%
    06:00 +14°C° 0 mm 5 mps 722 mmHg 54%
    07:00 +16°C° 0 mm 5 mps 723 mmHg 51%
    08:00 +19°C° 0 mm 6 mps 724 mmHg 47%
    09:00 +21°C° 0 mm 7 mps 724 mmHg 43%
    10:00 +23°C° 0 mm 6 mps 724 mmHg 39%
    11:00 +26°C° 0 mm 6 mps 724 mmHg 35%
    12:00 +27°C° 0 mm 5 mps 723 mmHg 30%
    13:00 +28°C° 0 mm 5 mps 723 mmHg 28%
    14:00 +29°C° 0 mm 5 mps 722 mmHg 25%
    15:00 +30°C° 0 mm 6 mps 722 mmHg 23%
    16:00 +29°C° 0 mm 5 mps 722 mmHg 25%
    17:00 +27°C° 0 mm 5 mps 722 mmHg 27%
    18:00 +26°C° 0 mm 5 mps 722 mmHg 29%
    19:00 +25°C° 0 mm 5 mps 723 mmHg 30%
    20:00 +23°C° 0 mm 6 mps 723 mmHg 32%
    21:00 +22°C° 0 mm 6 mps 723 mmHg 34%
    22:00 +21°C° 0 mm 6 mps 723 mmHg 34%
    23:00 +20°C° 0 mm 6 mps 723 mmHg 35%

    25 April, Thursday

    Time Temperature Precipitation Wind Pressure Humidity
    00:00 +19°C° 0 mm 6 mps 723 mmHg 35%
    01:00 +19°C° 0 mm 6 mps 723 mmHg 37%
    02:00 +17°C° 0 mm 6 mps 723 mmHg 39%
    03:00 +16°C° 0 mm 5 mps 722 mmHg 40%
    04:00 +16°C° 0 mm 5 mps 723 mmHg 42%
    05:00 +15°C° 0 mm 5 mps 723 mmHg 43%
    06:00 +15°C° 0 mm 5 mps 723 mmHg 44%
    07:00 +17°C° 0 mm 6 mps 723 mmHg 42%
    08:00 +20°C° 0 mm 7 mps 724 mmHg 39%
    09:00 +21°C° 0 mm 8 mps 724 mmHg 36%
    10:00 +23°C° 0 mm 8 mps 724 mmHg 32%
    11:00 +26°C° 0 mm 7 mps 723 mmHg 29%
    12:00 +28°C° 0 mm 7 mps 723 mmHg 25%
    13:00 +28°C° 0 mm 7 mps 722 mmHg 24%
    14:00 +29°C° 0 mm 7 mps 722 mmHg 22%
    15:00 +30°C° 0 mm 6 mps 721 mmHg 21%
    16:00 +28°C° 0 mm 6 mps 721 mmHg 23%
    17:00 +27°C° 0 mm 6 mps 721 mmHg 25%
    18:00 +26°C° 0 mm 5 mps 722 mmHg 27%
    19:00 +24°C° 0 mm 6 mps 722 mmHg 29%
    20:00 +22°C° 0 mm 6 mps 722 mmHg 32%
    21:00 +21°C° 0 mm 6 mps 723 mmHg 34%
    22:00 +21°C° 0 mm 6 mps 723 mmHg 37%
    23:00 +20°C° 0 mm 6 mps 723 mmHg 40%
    Show more